Погода в Казачке

Россия / Саратовская область     51°28′03″N   43°55′54″E
В апреле 2022 года жителям России запретили посещать сайт meteo.paraplan.net по решению Генеральной прокуратуры. Аудитория сайта уменьшилась в 10 раз. Владельцы сайта не видят смысла в поддержке погодного сервера в таких условиях. Сайт будет закрыт в октябре.
темп.,
°C
ветер,
м/с
пор.,
м/с
влажн.,
%
обл.,
%
осадки,
мм/ч
давл.,
гПа
погр.,
м
5 октября, ср
ср501:00+10юв489099 0.0 1018348
04:00+11ююв499362 0.1 1018354
07:00+11ю499273 0.1 1019326
10:00+13юз5866100 0.1 1020682
13:00+14юз684591 0.0 10201220
16:00+15юз7104580 0.0 10201905
19:00+13зюз6115472 0.0 1020979
22:00+9з36738 0.0 1021205
6 октября, чт
чт601:00+10зюз3870100 0.0 1020588
04:00+9з3780100 0.3 1020611
07:00+8з587983 0.3 1021690
10:00+8з587663 0.4 1021615
13:00+11зсз6754100 0.1 10211602
16:00+12зсз685598 0.3 10211592
19:00+10зсз3566100 0.1 1022133
22:00+9з4778100 0.2 1023343
7 октября, пт
пт701:00+8зюз368699 0.0 1023173
04:00+9зюз37855 0.0 1022262
07:00+7юз369511 0.0 1022128
10:00+11зюз587375 0.0 1021471
13:00+16з68594 0.0 1020990
16:00+17сз685797 0.0 10201332
19:00+12ссз49750 0.0 1023261
22:00+10зсз37830 0.0 1024132
8 октября, сб
сб801:00+8ссз36920 0.0 1026139
04:00+7ссз22920 0.0 102736
07:00+6сз22910 0.0 102815
10:00+10сз22690 0.0 1028286
13:00+14з11460 0.0 1027738
16:00+16юз22380 0.0 1026921
19:00+12ю22490 0.0 102610
22:00+10ю22540 0.0 102612
9 октября, вс
вс901:00+9ю33570 0.0 102634
04:00+8ю33695 0.0 102644
07:00+7ю33735 0.0 102640
10:00+12ю46536 0.0 1025310
13:00+17ю574259 0.0 1023977
16:00+18ю68385 0.0 10211379
19:00+13ююв465273 0.0 102197
22:00+12ююв4856100 0.0 1020145